Other Public Products
Issued by NWS Grand Forks, ND

Home | Current Version | Previous Version | Graphics & Text | Print | Product List | Glossary On
Versions: 1 2 3 4 5 6 7 8 9 10 11 12 13 14 15 16 17 18 19 20 21 22 23 24 25 26 27 28 29 30 31 32 33 34 35 36 37 38 39 40 41 42 43 44 45 46 47 48 49 50
000
FPUS83 KFGF 201331
OPUFGF
PRAIRIE TO PINES WEATHER ROUNDUP
NATIONAL WEATHER SERVICE EASTERN NORTH DAKOTA/GRAND FORKS ND
700 AM CST FRI JAN 20 2017

 **SATELLITE DATA USED TO AUGMENT SKY COVER AT AUTOMATED STATIONS**
 *****  WEATHER ACROSS EASTERN NORTH DAKOTA  *****

CITY           SKY/WX    TMP DP  RH WIND       PRES   REMARKS
GRAND FORKS    FOG       35  33  92 SE10      29.50F VSB 3/4
GRAND FORKS AF CLOUDY    32  32 100 SE10      29.50S FOG     WCI  24
GRAND CITY NWS NOT AVBL
BUXTON           N/A     34  34  99 SE9         N/A
DEVILS LAKE    CLOUDY    32  32 100 SE3       29.45S FOG
FARGO          CLOUDY    36  36 100 SE10      29.52S FOG
WAHPETON ARPT  CLOUDY    34  32  93 SE12      29.54F
$$

 *****  WEATHER ACROSS CENTRAL AND WESTERN NORTH DAKOTA  *****

CITY           SKY/WX    TMP DP  RH WIND       PRES   REMARKS
JAMESTOWN      FOG       33  33 100 SE9       29.43F VSB 1/2
BISMARCK       FOG       23  21  92 CALM      29.42F VSB 1/4
MINOT          FAIR      19  15  84 SW8       29.39S WCI   9
MINOT AFB      FOG       14  11  90 CALM      29.38F VSB 0
GARRISON         N/A     11   9  92 CALM      29.40F
WILLISTON      FAIR      15  13  91 CALM      29.40F
DICKINSON      FAIR      21  18  88 NW7       29.35S WCI  12
HETTINGER      FAIR      24  21  88 N8        29.39R WCI  15
$$

 *****  OTHER OBSERVATIONS NORTHEAST NORTH DAKOTA  *****

CITY           SKY/WX    TMP DP  RH WIND       PRES   REMARKS
WALHALLA       NOT AVBL
LANGDON        NOT AVBL
CAVALIER         N/A     34  34 100 S9        29.49S FOG
GRAFTON        FOG       34  34 100 SE12      29.51F VSB 3/4
CANDO          NOT AVBL
FORT TOTTEN      N/A     32  32 100 S2        29.95S
ROLLA            N/A    N/A N/A N/A MISG        N/A
RUGBY          FOG       23  23 100 SE6       29.42F VSB 1/2 WCI  16
 ***** THE ABOVE OBSERVATIONS ARE NON NWS ARE NOT QUALITY
        CONTROLLED AND MAY MIS-REPORT RAIN FOR SNOW...
$$

 *****  OTHER OBSERVATIONS SOUTHEAST NORTH DAKOTA *****

CITY           SKY/WX    TMP DP  RH WIND       PRES   REMARKS
COOPERSTOWN    FOG       34  34 100 SE10      29.47S VSB<1/4
VALLEY CITY    FOG       32  32 100 SE10      29.48S VSB 1/4 WCI  24
OAKES          NOT AVBL
GWINNER        CLOUDY    34  34 100 SE16      29.49S VSB 1/2 WCI  23
SHEYENNE NWR     N/A     34  34  99 SE14      29.95S WCI  25
BUFFALO          N/A     33  33  96 NE12        N/A  WCI  25
WYNDMERE         N/A     34  34 100 SE12        N/A
 ***** THE ABOVE OBSERVATIONS ARE NON NWS ARE NOT QUALITY
       CONTROLLED AND MAY MIS-REPORT RAIN FOR SNOW...
$$

  *****  WEATHER ACROSS NORTHERN MINNESOTA  *****

CITY           SKY/WX    TMP DP  RH WIND       PRES   REMARKS
FLAG ISLAND    CLOUDY    34  34 100 S12       29.57S FOG
WARROAD        CLOUDY    36  30  80 SE6       29.57S FOG
ROSEAU         CLOUDY    36  30  80 SE7       29.56S HAZE
HALLOCK        CLOUDY    36  34  93 SE10      29.50F FOG
THF RVR FALLS  CLOUDY    34  34 100 SE13      29.55S WCI  25
HALSTAD          N/A     35  34  96 SE14        N/A
FOSSTON        CLOUDY    34  32  93 E8        29.55F FOG
BAUDETTE       CLOUDY    34  33  96 SE6       29.59S FOG
WASKISH        CLOUDY    36  34  93 SE3       29.59F FOG
CROOKSTON      CLOUDY    34  34 100 SE12      29.54R
$$
  *****  WEATHER ACROSS CENTRAL AND WEST MINNESOTA  *****

CITY           SKY/WX    TMP DP  RH WIND       PRES   REMARKS
BEMIDJI        CLOUDY    33  33 100 SE5       29.58S FOG
PARK RAPIDS    FOG       34  32  92 SE6       29.56F VSB 1
WADENA         CLOUDY    32  32 100 E8        29.56S FOG     WCI  25
DETROIT LAKES  CLOUDY    34  34 100 SE7       29.55F FOG
MOORHEAD       CLOUDY    36  34  93 SE8       29.54S FOG
FERGUS FALLS   CLOUDY    34  34 100 SE9       29.57F FOG
ELBOW LAKE     CLOUDY    33  33 100 SE7       29.54F FOG
MORRIS MN      CLOUDY    34  34 100 SE12      29.53F FOG
STAPLES        CLOUDY    34  34 100 CALM      29.57F FOG
WHEATON        CLOUDY    41  41 100 SE12      29.54F FOG
$$
  *****  WEATHER ELSEWHERE ACROSS MINNESOTA  *****

CITY           SKY/WX    TMP DP  RH WIND       PRES   REMARKS
DULUTH         CLOUDY    34  33  96 E6        29.64S FOG
INTRNTL FALLS  FOG       33  32  96 CALM      29.62S VSB 1/2
ELY            FOG       19  19 100 CALM      29.65S VSB 1/4
CLOQUET        MIX PCPN  34  32  93 SE6       29.63F
BRAINERD       LGT RAIN  34  34 100 SE3       29.60S FOG
HIBBING        FRZ RAIN  30  30 100 E5        29.63S FOG
ALEXANDRIA     CLOUDY    33  33 100 SE9       29.55F FOG
SAINT CLOUD    FOG       34  34 100 SE5       29.59F VSB 1
MINNEAPOLIS    DRIZZLE   35  33  92 SE7       29.62F FOG
$$

  *****  WEATHER ACROSS SOUTH DAKOTA  *****

CITY           SKY/WX    TMP DP  RH WIND       PRES   REMARKS
SIOUX FALLS    FOG       37  37 100 SE12      29.50F VSB 1/4
BROOKINGS      CLOUDY    36  35  96 SE10      29.49S
WATERTOWN      CLOUDY    36  35  96 SE10      29.48R FOG
HURON          CLOUDY    36  36 100 SE9       29.43S
SISSETON         N/A     34  34 100 S10       29.50S
ABERDEEN       CLOUDY    34  31  88 SE6       29.45S FOG
MITCHELL       CLOUDY    38  37  97 SE10      29.44S
PIERRE         FOG       17  15  92 CALM      29.38S VSB 1/4
MOBRIDGE       FOG       24  20  84 N6        29.36S VSB 1/2 WCI  17
RAPID CITY     FAIR      28  20  71 NW8       29.38R WCI  20
$$

  *****  SOME WEATHER IN NEARBY STATES *****

CITY           SKY/WX    TMP DP  RH WIND       PRES   REMARKS
GLASGOW MT     CLOUDY    29  25  85 W9        29.42S WCI  20
GREAT FALLS MT FAIR      33  24  69 SW14      29.44F WCI  23
CHEYENNE WY    LGT SNOW  34  26  72 NW10      29.46S
SCOTTSBLUFF NE FAIR      26  21  81 NW8       29.44S WCI  18
OMAHA NE       CLOUDY    39  36  89 S7        29.56R
DES MOINES IA  FOG       37  36  96 E7        29.59F VSB 1/4
DAVENPORT IA   FOG       35  35 100 E7        29.62S VSB 3/4
CHICAGO IL     LGT RAIN  38  37  97 NE7       29.62S FOG
EAU CLAIRE WI  LGT RAIN  35  35 100 E6        29.65S FOG
LA CROSSE WI   CLOUDY    37  35  92 SE3       29.65S FOG
$$

  *****  SOME NATIONAL WEATHER *****

CITY           SKY/WX    TMP DP  RH WIND       PRES   REMARKS
LA GUARDIA NY  CLOUDY    41  31  67 NE7       30.01R
RALEIGH NC     LGT RAIN  49  44  83 SE8       29.91F
ATLANTA GA     MOCLDY    63  61  93 SW9       29.85R
NEW ORLEANS LA MOCLDY    65  65 100 S3        29.83R FOG
OKLAHOMA CITY  FAIR      37  36  96 S10       29.48S
ALBUQUERQUE NM LGT RAIN  34  32  92 SW22G28   29.70F WCI  22
SALT LAKE CITY FOG       30  29  96 SW3       29.63S VSB 3/4
LOS ANGELES CA LGT RAIN  52  51  97 VRB6      29.79F
BOISE ID       FAIR      37  29  72 SE14      29.50F
SEATTLE WA     CLOUDY    40  33  76 E9        29.24F
$$

*** WEATHER ACROSS MANITOBA...SASKATCHEWAN AND ONTARIO ***
                ***ONTARIO***

CITY           SKY/WX    TMP DP  RH WIND       PRES   REMARKS
GERALDTON      FOG       34  34 100 SW6       29.68R VSB 1/4
THUNDER BAY    FOG       30  30 100 W3        29.72R VSB 1/4
SIOUX LOOKOUT  FOG       34  34 100 S3        29.61F VSB 1/8
TORONTO        CLOUDY    36  32  87 E6        29.81F
BIG TROUT LK   FOG       18  16  93 CALM      29.58R VSB 1/4
PICKLE LAKE    FOG       34  34 100 SW6       29.59S VSB 3/8
DRYDEN         FOG       34  34 100 S7        29.61R VSB 1/4
KENORA         FOG       34  34 100 S9        29.58S VSB 1/4
$$
                *** MANITOBA***

CITY           SKY/WX    TMP DP  RH WIND       PRES   REMARKS
BRANDON        PTCLDY    10   9  92 CALM      29.43R FOG
DAUPHIN        CLEAR     23  23 100 VRB2      29.38S
ISLAND LAKE    PTCLDY    21  19  93 SE6       29.51R WCI  14
PILOT MOUND      N/A     23  23 100 S12         N/A  WCI  12
THE PAS        CLEAR     27  25  93 E7        29.38S WCI  19
THOMPSON       CLOUDY    28  28 100 VRB2      29.51R FOG
WINNIPEG       CLOUDY    34  34 100 S14       29.50S FOG     WCI  24
LYNN LAKE      FOG       28  28 100 E10       29.44F VSB 5/8 WCI  19
CHURCHILL      FLURRIES  18  18 100 E13       29.70R WCI   4
GILLAM         CLOUDY    25  23  93 E6        29.59R WCI  18
$$
                ***SASKATCHEWAN***

CITY           SKY/WX    TMP DP  RH WIND       PRES   REMARKS
ESTEVAN        PTCLDY    12   9  85 W5        29.37F WCI   4
KINDERSLEY     MOCLDY    25  21  86 W5        29.33R WCI  19
LLOYDMINSTER   MOCLDY    23  19  86 W9        29.31R WCI  13
PRINCE ALBERT  MOCLDY    21  19  93 VRB2      29.29S
REGINA         CLEAR     16  14  93 E7        29.36S WCI   6
YORKTON        CLEAR     25  23  93 S5        29.35S WCC1F1C2F2C3F3C4F4C5F5C6F6C7F7C8F8C9F9CaFaCbFbCcFcCdFdCe!


USA.gov is the U.S. government's official web portal to all federal, state and local government web resources and services.